Simultaneous Nadir Overpasses (SNOs) Predictions

Prediction of SNOs between GOES-15 and METOP-A Satellite Orbit:

Table of predicted SNOs for the next 14.0 days since TLE Epoch: 2/10/2012
Index Date Time (GOES-15) GOES-15 Lat,Lon METOP-A Lat,Lon Distance(km) Time Diff (sec)
1 02/10/2012 18:14:40 0.00,-135.11 -0.94,-131.02 467.34 80
2 02/12/2012 06:33:42 -0.00,-135.16 -0.13,-135.61 51.48 80
3 02/14/2012 18:31:56 0.00,-135.20 0.01,-135.18 2.80 80
4 02/17/2012 06:27:40 -0.00,-135.26 0.09,-134.79 53.06 80
5 02/18/2012 18:49:13 0.00,-135.27 0.92,-139.36 465.59 80
6 02/19/2012 18:25:55 0.00,-135.29 -0.19,-134.36 104.97 80
7 02/21/2012 06:47:37 -0.00,-135.32 -0.81,-138.97 415.08 80
8 02/22/2012 06:24:19 -0.00,-135.34 0.30,-133.97 155.28 80
9 02/23/2012 18:45:52 0.00,-135.35 0.72,-138.54 363.91 80




NCC Satellite Simultaneous Nadir Overpasses (SNOs) Prediction Service
